Date String (YYYY-MM-DD hh:mm:ss) UTC,Instrument flags,absolute air pressure of the measurement (hPa),sample flow rate (lpm),inlet stack bypass flow (lpm),air temperature of the measurement (°C),ambient temperature measured by the external sensor (°C),aerosol sample conditioner tube jacket temperature (°C),OPC LED temperature (°C),internal box temperature (°C),relative humidity of the measurement (%),span deviation,mass concentration of particles derived from Lorenz-Mie calculation of OPC scattering (μg/m³),mass concentration of particles derived from Lorenz-Mie calculation of OPC scattering (μg/m³),mass concentration of particles derived from Lorenz-Mie calculation of OPC scattering (μg/m³)
DateTimeUTC,F1_M11,P_M11,Q1_M11,Q2_M11,T1_M11,T2_M11,T3_M11,T4_M11,T5_M11,U1_M11,ZSPAN_M11,X0_M11,X2_M11,X1_M11
2024-01-03 20:00:00,SystemResetWarning,0827.5,5.00,000.00,022.9,022.3,000.0,031.1,024.3,12.2,0004.8,0016.82,0009.22,0008.51
2024-01-03 20:01:00,SystemResetWarning,0827.6,5.01,000.00,022.9,022.3,000.0,031.1,024.4,12.2,0004.8,0017.19,0009.32,0008.61
2024-01-03 20:02:00,SystemResetWarning,0827.8,5.00,000.00,023.0,022.3,000.0,031.1,024.4,12.2,0004.5,0017.58,0009.40,0008.70
2024-01-03 20:03:00,SystemResetWarning,0827.4,5.01,000.00,023.0,022.4,000.0,031.1,024.4,12.3,0004.4,0016.77,0009.45,0008.75
2024-01-03 20:04:00,SystemResetWarning,0827.5,5.00,000.00,023.0,022.4,000.0,031.1,024.4,12.3,0004.2,0015.79,0009.48,0008.79
2024-01-03 20:05:00,SystemResetWarning,0827.4,5.00,000.00,023.0,022.4,000.0,031.2,024.4,12.0,0003.6,0015.54,0009.49,0008.82
2024-01-03 20:06:00,SystemResetWarning,0827.4,5.00,000.00,023.0,022.4,000.0,031.2,024.4,12.0,0003.4,0015.01,0009.51,0008.86
2024-01-03 20:07:00,SystemResetWarning,0827.4,5.00,000.00,023.0,022.4,000.0,031.2,024.4,12.0,0003.3,0014.70,0009.53,0008.88
2024-01-03 20:08:00,SystemResetWarning,0827.4,4.99,000.00,023.0,022.4,000.0,031.2,024.4,12.1,0003.3,0014.19,0009.51,0008.88
2024-01-03 20:09:00,SystemResetWarning,0827.4,5.00,000.00,023.0,022.4,000.0,031.2,024.4,12.1,0003.6,0014.55,0009.51,0008.88
2024-01-03 20:10:00,SystemResetWarning,0827.4,5.00,000.00,023.0,022.4,000.0,031.2,024.5,12.1,0003.5,0015.34,0009.52,0008.91
2024-01-03 20:11:00,SystemResetWarning,0827.4,5.00,000.00,023.1,022.5,000.0,031.2,024.5,12.0,0003.5,0015.38,0009.53,0008.93
2024-01-03 20:12:00,SystemResetWarning,0827.3,5.00,000.00,023.1,022.5,000.0,031.2,024.5,12.1,0003.5,0015.51,0009.59,0008.96
2024-01-03 20:13:00,SystemResetWarning,0827.4,5.00,000.00,023.1,022.5,000.0,031.2,024.5,12.1,0003.4,0015.17,0009.62,0008.98
2024-01-03 20:14:00,SystemResetWarning,0827.4,5.00,000.00,023.1,022.5,000.0,031.3,024.6,12.3,0003.5,0015.22,0009.67,0009.03
2024-01-03 20:15:00,SystemResetWarning,0827.4,5.00,000.00,023.1,022.5,000.0,031.3,024.6,12.3,0003.5,0015.73,0009.74,0009.10
2024-01-03 20:16:00,SystemResetWarning,0827.4,4.99,000.00,023.1,022.5,000.0,031.3,024.6,12.3,0003.8,0015.99,0009.81,0009.16
2024-01-03 20:17:00,SystemResetWarning,0827.4,5.00,000.00,023.1,022.6,000.0,031.3,024.6,12.3,0004.1,0016.53,0009.88,0009.22
2024-01-03 20:18:00,SystemResetWarning,0827.4,5.00,000.00,023.2,022.6,000.0,031.3,024.6,12.2,0004.3,0016.82,0009.92,0009.26
2024-01-03 20:19:00,SystemResetWarning,0827.4,5.00,000.00,023.2,022.6,000.0,031.3,024.6,12.2,0004.6,0016.89,0009.95,0009.29
2024-01-03 20:20:00,SystemResetWarning,0827.3,5.00,000.00,023.2,022.6,000.0,031.3,024.6,12.2,0004.5,0016.29,0010.00,0009.31
2024-01-03 20:21:00,SystemResetWarning,0827.3,5.01,000.00,023.2,022.6,000.0,031.4,024.7,12.2,0004.6,0015.52,0010.01,0009.33
2024-01-03 20:22:00,SystemResetWarning,0827.3,5.00,000.00,023.2,022.6,000.0,031.4,024.7,12.2,0004.7,0016.03,0010.03,0009.34
2024-01-03 20:23:00,SystemResetWarning,0827.3,5.01,000.00,023.2,022.7,000.0,031.4,024.7,12.1,0004.6,0016.39,0010.00,0009.32
2024-01-03 20:24:00,SystemResetWarning,0827.3,5.00,000.00,023.2,022.7,000.0,031.4,024.7,12.1,0004.7,0016.78,0009.95,0009.31
2024-01-03 20:25:00,SystemResetWarning,0827.2,4.99,000.00,023.3,022.7,000.0,031.4,024.8,12.0,0004.5,0016.85,0009.94,0009.28
2024-01-03 20:26:00,SystemResetWarning,0827.2,4.99,000.00,023.3,022.7,000.0,031.4,024.8,11.9,0004.5,0016.90,0009.92,0009.25
2024-01-03 20:27:00,SystemResetWarning,0827.2,5.02,000.00,023.3,022.7,000.0,031.4,024.8,11.8,0004.3,0016.89,0009.89,0009.22
2024-01-03 20:28:00,SystemResetWarning,0827.1,5.01,000.00,023.3,022.7,000.0,031.5,024.8,11.8,0004.1,0016.93,0009.84,0009.18
2024-01-03 20:29:00,SystemResetWarning,0827.2,5.00,000.00,023.3,022.8,000.0,031.5,024.9,11.9,0004.3,0017.14,0009.83,0009.15
2024-01-03 20:30:00,SystemResetWarning,0827.1,5.00,000.00,023.4,022.8,000.0,031.5,024.9,11.6,0003.9,0017.41,0009.81,0009.13
2024-01-03 20:31:00,SystemResetWarning,0827.1,5.00,000.00,023.4,022.8,000.0,031.5,024.8,11.5,0004.1,0018.15,0009.80,0009.14
2024-01-03 20:32:00,SystemResetWarning,0827.2,5.00,000.00,023.4,022.8,000.0,031.5,024.8,11.4,0004.3,0019.78,0009.82,0009.14
2024-01-03 20:33:00,SystemResetWarning,0827.2,5.00,000.00,023.4,022.8,000.0,031.5,024.8,11.3,0004.3,0019.67,0009.84,0009.14
2024-01-03 20:34:00,SystemResetWarning,0827.1,5.00,000.00,023.4,022.8,000.0,031.6,024.9,11.3,0004.2,0019.11,0009.88,0009.15
2024-01-03 20:35:00,SystemResetWarning,0827.1,5.00,000.00,023.4,022.8,000.0,031.6,024.9,11.3,0004.6,0018.71,0009.93,0009.16
2024-01-03 20:36:00,SystemResetWarning,0827.1,5.00,000.00,023.5,022.9,000.0,031.6,024.9,11.4,0004.7,0019.49,0009.97,0009.17
2024-01-03 20:37:00,SystemResetWarning,0827.1,5.00,000.00,023.5,022.9,000.0,031.6,024.9,11.4,0004.8,0019.96,0009.98,0009.19
2024-01-03 20:38:00,SystemResetWarning,0827.1,5.00,000.00,023.5,022.9,000.0,031.6,024.9,11.3,0005.2,0020.31,0010.02,0009.21
2024-01-03 20:39:00,SystemResetWarning,0827.1,5.01,000.00,023.5,022.9,000.0,031.6,024.9,11.3,0005.4,0020.69,0010.07,0009.24
2024-01-03 20:40:00,SystemResetWarning,0827.1,5.00,000.00,023.5,022.9,000.0,031.7,024.9,11.3,0005.5,0020.15,0010.10,0009.26
2024-01-03 20:41:00,SystemResetWarning,0827.1,5.01,000.00,023.5,022.9,000.0,031.7,024.9,11.3,0005.7,0020.25,0010.14,0009.29
2024-01-03 20:42:00,SystemResetWarning,0827.1,5.00,000.00,023.5,022.9,000.0,031.7,025.0,11.3,0005.4,0020.27,0010.16,0009.29
2024-01-03 20:43:00,SystemResetWarning,0827.1,5.00,000.00,023.5,022.9,000.0,031.7,025.0,11.2,0005.2,0019.94,0010.14,0009.29
2024-01-03 20:44:00,SystemResetWarning,0827.1,5.00,000.00,023.6,023.0,000.0,031.7,025.0,11.2,0004.7,0020.93,0010.14,0009.29
2024-01-03 20:45:00,SystemResetWarning,0827.0,5.00,000.00,023.6,023.0,000.0,031.7,025.0,11.2,0004.5,0020.90,0010.13,0009.30
2024-01-03 20:46:00,SystemResetWarning,0827.0,5.00,000.00,023.6,023.0,000.0,031.7,025.0,11.2,0004.3,0021.30,0010.16,0009.30
2024-01-03 20:47:00,SystemResetWarning,0827.0,5.00,000.00,023.6,023.0,000.0,031.7,025.0,11.2,0004.3,0021.35,0010.14,0009.31
2024-01-03 20:48:00,SystemResetWarning,0826.9,5.00,000.00,023.6,023.0,000.0,031.8,025.1,11.2,0004.4,0020.85,0010.16,0009.33
2024-01-03 20:49:00,SystemResetWarning,0827.0,5.00,000.00,023.6,023.0,000.0,031.8,025.1,11.2,0004.3,0020.19,0010.18,0009.35
2024-01-03 20:50:00,SystemResetWarning,0826.9,5.00,000.00,023.7,023.1,000.0,031.8,025.1,11.3,0004.3,0020.69,0010.18,0009.35
2024-01-03 20:51:00,SystemResetWarning,0826.9,5.00,000.00,023.7,023.1,000.0,031.8,025.1,11.2,0004.3,0020.60,0010.19,0009.37
2024-01-03 20:52:00,SystemResetWarning,0826.9,5.00,000.00,023.7,023.1,000.0,031.8,025.1,11.1,0004.0,0020.39,0010.22,0009.39
2024-01-03 20:53:00,SystemResetWarning,0826.9,4.99,000.00,023.7,023.1,000.0,031.8,025.1,11.0,0004.3,0020.23,0010.24,0009.43
2024-01-03 20:54:00,SystemResetWarning,0826.9,4.99,000.00,023.7,023.1,000.0,031.9,025.1,10.9,0004.8,0019.39,0010.25,0009.46
2024-01-03 20:55:00,SystemResetWarning,0826.9,5.00,000.00,023.7,023.1,000.0,031.9,025.1,10.9,0004.8,0018.16,0010.28,0009.50
2024-01-03 20:56:00,SystemResetWarning,0826.9,5.00,000.00,023.8,023.1,000.0,031.9,025.1,11.0,0005.0,0018.39,0010.34,0009.53
2024-01-03 20:57:00,SystemResetWarning,0826.9,5.00,000.00,023.8,023.1,000.0,031.9,025.1,11.0,0004.7,0017.91,0010.37,0009.56
2024-01-03 20:58:00,SystemResetWarning,0826.9,5.00,000.00,023.8,023.2,000.0,031.9,025.1,11.0,0004.7,0017.17,0010.41,0009.62
2024-01-03 20:59:00,SystemResetWarning,0826.9,5.00,000.00,023.8,023.2,000.0,031.9,025.1,11.0,0004.7,0016.80,0010.47,0009.65
